Météo par heure à Alibag

Ce jour, 26 Octobre, Lundi

Heure Température Précipitation Vent Pression Humidité
00:00 +27°C° 0.1 mm 2 m/s 757 mmHg 88%
01:00 +27°C° 0.1 mm 2 m/s 757 mmHg 88%
02:00 +27°C° 0.1 mm 2 m/s 757 mmHg 88%
03:00 +27°C° 0.3 mm 2 m/s 757 mmHg 88%
04:00 +26°C° 0.3 mm 2 m/s 757 mmHg 88%
05:00 +26°C° 0.3 mm 2 m/s 757 mmHg 88%
06:00 +27°C° 0.3 mm 2 m/s 758 mmHg 87%
07:00 +27°C° 0.3 mm 2 m/s 758 mmHg 86%
08:00 +28°C° 0.3 mm 2 m/s 759 mmHg 85%
09:00 +28°C° 0 mm 2 m/s 759 mmHg 84%
10:00 +28°C° 0 mm 2 m/s 759 mmHg 84%
11:00 +29°C° 0 mm 2 m/s 759 mmHg 83%
12:00 +29°C° 0 mm 2 m/s 758 mmHg 83%
13:00 +29°C° 0 mm 1 m/s 758 mmHg 83%
14:00 +29°C° 0 mm 1 m/s 757 mmHg 83%
15:00 +28°C° 0 mm 1 m/s 757 mmHg 82%
16:00 +28°C° 0 mm 1 m/s 757 mmHg 82%
17:00 +31°C° 0 mm 2 m/s 757 mmHg 75%
18:00 +30°C° 0 mm 2 m/s 757 mmHg 77%
19:00 +29°C° 0 mm 2 m/s 758 mmHg 78%
20:00 +29°C° 0 mm 2 m/s 758 mmHg 80%
21:00 +27°C° 0 mm 1 m/s 757 mmHg 81%
22:00 +27°C° 0 mm 1 m/s 758 mmHg 81%
23:00 +28°C° 0 mm 1 m/s 758 mmHg 80%

Demain, 27 Octobre, Mardi

Heure Température Précipitation Vent Pression Humidité
00:00 +28°C° 0 mm 1 m/s 758 mmHg 81%
01:00 +27°C° 0 mm 2 m/s 757 mmHg 81%
02:00 +27°C° 0 mm 2 m/s 757 mmHg 81%
03:00 +25°C° 0 mm 2 m/s 757 mmHg 76%
04:00 +25°C° 0 mm 2 m/s 757 mmHg 76%
05:00 +25°C° 0 mm 3 m/s 757 mmHg 76%
06:00 +28°C° 0 mm 1 m/s 758 mmHg 79%
07:00 +28°C° 0 mm 2 m/s 758 mmHg 77%
08:00 +29°C° 0 mm 2 m/s 759 mmHg 76%
09:00 +30°C° 0 mm 2 m/s 758 mmHg 70%
10:00 +32°C° 0 mm 2 m/s 758 mmHg 65%
11:00 +34°C° 0 mm 2 m/s 758 mmHg 60%
12:00 +35°C° 0 mm 2 m/s 758 mmHg 58%
13:00 +35°C° 0 mm 2 m/s 757 mmHg 55%
14:00 +36°C° 0 mm 2 m/s 756 mmHg 53%
15:00 +34°C° 0 mm 3 m/s 756 mmHg 61%
16:00 +33°C° 0 mm 3 m/s 756 mmHg 68%
17:00 +32°C° 0 mm 4 m/s 756 mmHg 76%
18:00 +30°C° 0 mm 4 m/s 757 mmHg 75%
19:00 +29°C° 0 mm 4 m/s 757 mmHg 75%
20:00 +28°C° 0 mm 4 m/s 758 mmHg 74%
21:00 +28°C° 0 mm 3 m/s 758 mmHg 74%
22:00 +28°C° 0 mm 3 m/s 758 mmHg 74%
23:00 +27°C° 0 mm 3 m/s 758 mmHg 74%

Après-demain, 28 Octobre, Mercredi

Heure Température Précipitation Vent Pression Humidité
00:00 +27°C° 0 mm 2 m/s 758 mmHg 71%
01:00 +26°C° 0 mm 2 m/s 757 mmHg 68%
02:00 +26°C° 0 mm 2 m/s 757 mmHg 66%
03:00 +26°C° 0 mm 2 m/s 757 mmHg 75%
04:00 +26°C° 0 mm 2 m/s 757 mmHg 74%
05:00 +25°C° 0 mm 2 m/s 757 mmHg 74%
06:00 +26°C° 0 mm 2 m/s 758 mmHg 72%
07:00 +27°C° 0 mm 2 m/s 758 mmHg 71%
08:00 +28°C° 0 mm 2 m/s 759 mmHg 70%
09:00 +29°C° 0 mm 2 m/s 759 mmHg 64%
10:00 +31°C° 0 mm 2 m/s 759 mmHg 59%
11:00 +34°C° 0 mm 2 m/s 759 mmHg 54%
12:00 +34°C° 0 mm 2 m/s 758 mmHg 52%
13:00 +34°C° 0 mm 2 m/s 757 mmHg 50%
14:00 +35°C° 0 mm 2 m/s 756 mmHg 48%
15:00 +34°C° 0 mm 2 m/s 757 mmHg 53%
16:00 +32°C° 0 mm 2 m/s 757 mmHg 58%
17:00 +31°C° 0 mm 2 m/s 757 mmHg 63%
18:00 +29°C° 0 mm 2 m/s 757 mmHg 67%
19:00 +28°C° 0 mm 2 m/s 758 mmHg 70%
20:00 +27°C° 0 mm 2 m/s 758 mmHg 74%
21:00 +27°C° 0 mm 2 m/s 758 mmHg 74%
22:00 +27°C° 0 mm 1 m/s 758 mmHg 75%
23:00 +27°C° 0 mm 1 m/s 758 mmHg 76%

29 Octobre, Jeudi

Heure Température Précipitation Vent Pression Humidité
00:00 +26°C° 0 mm 1 m/s 758 mmHg 74%
01:00 +26°C° 0 mm 1 m/s 758 mmHg 73%
02:00 +26°C° 0 mm 1 m/s 758 mmHg 72%
03:00 +25°C° 0 mm 1 m/s 758 mmHg 70%
04:00 +25°C° 0 mm 2 m/s 758 mmHg 68%
05:00 +25°C° 0 mm 2 m/s 758 mmHg 67%
06:00 +25°C° 0 mm 2 m/s 758 mmHg 66%
07:00 +26°C° 0 mm 2 m/s 759 mmHg 66%
08:00 +27°C° 0 mm 2 m/s 759 mmHg 66%
09:00 +29°C° 0 mm 2 m/s 759 mmHg 60%
10:00 +30°C° 0 mm 2 m/s 759 mmHg 55%
11:00 +32°C° 0 mm 1 m/s 759 mmHg 50%
12:00 +32°C° 0 mm 2 m/s 759 mmHg 48%
13:00 +34°C° 0 mm 2 m/s 758 mmHg 47%
14:00 +34°C° 0 mm 2 m/s 757 mmHg 46%
15:00 +32°C° 0 mm 2 m/s 757 mmHg 53%
16:00 +31°C° 0 mm 3 m/s 757 mmHg 60%
17:00 +29°C° 0 mm 3 m/s 757 mmHg 67%
18:00 +29°C° 0 mm 3 m/s 758 mmHg 68%
19:00 +28°C° 0 mm 3 m/s 758 mmHg 69%
20:00 +27°C° 0 mm 3 m/s 759 mmHg 69%
21:00 +27°C° 0 mm 2 m/s 759 mmHg 70%
22:00 +26°C° 0 mm 2 m/s 759 mmHg 71%
23:00 +26°C° 0 mm 2 m/s 759 mmHg 72%

30 Octobre, Vendredi

Heure Température Précipitation Vent Pression Humidité
00:00 +26°C° 0 mm 2 m/s 758 mmHg 71%
01:00 +25°C° 0 mm 2 m/s 758 mmHg 71%
02:00 +25°C° 0 mm 2 m/s 758 mmHg 70%
03:00 +24°C° 0 mm 2 m/s 758 mmHg 69%
04:00 +24°C° 0 mm 2 m/s 758 mmHg 67%
05:00 +24°C° 0 mm 2 m/s 758 mmHg 65%
06:00 +25°C° 0 mm 2 m/s 758 mmHg 65%
07:00 +25°C° 0 mm 2 m/s 759 mmHg 64%
08:00 +26°C° 0 mm 2 m/s 759 mmHg 64%
09:00 +28°C° 0 mm 2 m/s 759 mmHg 59%
10:00 +30°C° 0 mm 1 m/s 759 mmHg 54%
11:00 +32°C° 0 mm 1 m/s 759 mmHg 49%
12:00 +32°C° 0 mm 1 m/s 758 mmHg 47%
13:00 +32°C° 0 mm 2 m/s 757 mmHg 46%
14:00 +34°C° 0 mm 2 m/s 757 mmHg 44%
15:00 +31°C° 0 mm 2 m/s 756 mmHg 53%
16:00 +30°C° 0 mm 2 m/s 756 mmHg 61%
17:00 +29°C° 0 mm 2 m/s 756 mmHg 69%
18:00 +28°C° 0 mm 2 m/s 757 mmHg 70%
19:00 +27°C° 0 mm 2 m/s 757 mmHg 72%
20:00 +26°C° 0 mm 2 m/s 757 mmHg 73%
21:00 +26°C° 0 mm 2 m/s 757 mmHg 73%
22:00 +26°C° 0 mm 1 m/s 757 mmHg 74%
23:00 +25°C° 0 mm 1 m/s 757 mmHg 75%

31 Octobre, Samedi

Heure Température Précipitation Vent Pression Humidité
00:00 +25°C° 0 mm 1 m/s 757 mmHg 74%
01:00 +25°C° 0 mm 1 m/s 757 mmHg 74%
02:00 +25°C° 0 mm 1 m/s 756 mmHg 74%
03:00 +24°C° 0 mm 1 m/s 757 mmHg 73%
04:00 +24°C° 0 mm 1 m/s 757 mmHg 73%
05:00 +24°C° 0 mm 1 m/s 757 mmHg 73%
06:00 +25°C° 0 mm 2 m/s 757 mmHg 72%
07:00 +26°C° 0 mm 2 m/s 758 mmHg 70%
08:00 +27°C° 0 mm 2 m/s 758 mmHg 68%
09:00 +28°C° 0 mm 2 m/s 758 mmHg 63%
10:00 +30°C° 0 mm 2 m/s 758 mmHg 58%
11:00 +31°C° 0 mm 2 m/s 758 mmHg 52%
Voir plus

Nous avons besoin de votre consentement

Meteoprog et ses fournisseurs de services peuvent stocker et accéder à des données personnelles telles que des cookies, des identifiants d'appareils ou d'autres technologies similaires sur votre appareil et traiter ces données pour personnaliser le contenu et les publicités, ainsi que pour fournir des fonctionnalités de médias sociaux et analyser le trafic.

  • Stocker et/ou accéder à des informations sur votre appareil

    Des cookies, des identifiants d'appareils ou d'autres informations peuvent être stockés ou accessibles sur votre appareil aux fins indiquées ci-dessus.

  • Annonces et contenus personnalisés, mesure des annonces et des contenus, connaissance de l'audience et développement de produits

    Les annonces et le contenu peuvent être personnalisés en fonction d'un profil. D'autres données peuvent être ajoutées pour mieux personnaliser les annonces et le contenu. Les performances des publicités et du contenu peuvent être mesurées. Il est possible d'obtenir des informations sur le public qui a vu les publicités et le contenu. Ces données peuvent être utilisées pour développer ou améliorer l'expérience de l'utilisateur, les systèmes et les logiciels.

En cliquant sur "J'accepte", vous autorisez l'utilisation de cookies, des identifiants d'appareils, des balises web ou d'autres technologies similaires. Vos paramètres peuvent être modifiés dans le navigateur de votre appareil.

Dans certains cas, des intérêts légitimes peuvent être invoqués plutôt qu'un consentement. Vous pouvez en savoir plus à ce sujet dans notre Politique de confidentialité et de cookies.